Temp
30 28 27 27 28 30 31 31 32 33 33 33 33 30 30 28 26 29 30 29 30 28 26 26 25 25 24 24 24 23 24 24 25 26 26 26 27 27 29 30 30 30 31 31 31 31 31 31 30 29 29 29 29 28 28 27 27 27 27 26 26 26 25 25 25 25 26 26 26 26 26 26 25 25 25 25 25 24 24 24 24 24 24 24 24 24
29 27 27 29 30 31 32 32 33 33 33 33 32 30 29 28 27 30 31 30 31 28 25 26 25 24 24 24 24 24 24 25 25 25 25 26 27 27 28 29 30 31 31 31 31 31 31 30 30 30 29 29 29 28 28 27 27 27 27 26 26 26 25 25 25 25 25 26 26 26 26 26 26 25 25 25 25 25 24 24 24 25 24 24 24 24
27 26 29 31 31 32 32 33 33 33 34 33 32 29 27 28 29 29 31 31 31 28 24 26 26 24 25 25 24 24 24 25 25 25 25 25 26 27 27 28 29 30 31 31 31 31 31 30 30 29 29 29 28 28 28 27 27 27 26 26 26 25 25 25 25 25 26 26 26 26 26 26 26 25 25 25 25 25 25 25 25 24 25 25 25 24
24 27 30 32 32 33 32 33 33 33 33 32 31 28 25 28 28 26 28 31 32 29 25 25 26 25 25 25 25 25 25 25 25 25 25 25 26 27 27 27 29 30 30 30 31 31 30 30 30 29 29 28 28 28 28 27 27 27 26 26 26 26 25 25 25 25 26 26 26 27 26 26 26 26 26 25 25 25 25 25 24 24 24 24 24 24
27 30 32 32 32 33 32 33 34 32 30 32 33 30 28 29 28 27 29 31 31 29 28 26 24 24 25 24 24 24 24 25 25 25 25 25 25 26 27 28 28 30 30 30 31 31 30 30 29 29 29 28 28 28 28 27 27 27 26 26 26 26 25 25 25 26 26 26 26 27 27 27 26 26 26 25 25 25 25 25 24 24 24 24 24 24
30 32 32 32 32 33 32 32 33 32 28 29 33 33 33 32 30 30 30 29 26 25 28 28 22 22 25 25 24 23 24 24 24 25 25 25 26 26 26 27 28 29 30 31 31 30 30 30 29 29 29 28 28 28 28 28 27 27 27 26 26 26 25 25 26 26 26 26 27 27 27 27 26 26 26 26 26 25 25 25 25 24 24 24 24 24
31 33 33 32 32 32 33 32 33 34 28 26 32 35 36 34 31 30 30 27 23 23 28 30 23 21 24 25 26 24 24 24 24 25 25 25 26 26 26 27 27 28 29 30 31 30 30 30 29 29 29 28 28 28 28 28 27 27 27 26 26 26 26 26 26 26 26 27 27 27 27 27 27 27 26 26 26 26 25 25 25 25 25 24 24 24
32 33 32 33 32 32 31 31 33 35 29 26 34 37 35 35 32 30 29 26 25 26 28 30 27 22 21 25 28 27 25 25 24 25 25 25 26 25 26 27 27 28 29 30 31 30 30 30 29 29 29 29 28 28 28 28 28 27 27 26 26 26 26 26 26 26 26 26 27 27 27 27 27 27 27 27 26 26 26 26 26 25 25 25 25 25
33 32 32 33 32 31 31 32 34 35 31 31 36 37 35 36 34 31 28 26 28 27 23 26 27 22 21 24 28 28 25 25 25 25 25 25 26 26 26 27 28 28 29 30 30 30 30 30 29 30 29 29 29 28 28 28 28 27 27 26 26 26 26 26 26 26 26 26 26 26 26 26 26 27 27 27 26 27 27 27 26 26 25 25 25 25
33 33 33 33 32 31 32 34 35 34 34 34 36 36 36 36 35 34 30 27 28 25 21 24 26 23 21 23 26 26 25 25 26 26 25 25 26 26 26 26 28 29 29 29 30 30 30 30 30 30 30 30 29 28 28 28 28 27 26 26 26 26 26 26 26 26 26 26 26 26 26 26 26 26 26 27 27 27 27 27 26 26 26 25 25 25
33 33 34 34 34 34 34 35 35 35 35 36 35 35 34 35 35 34 32 29 25 23 23 24 25 24 21 22 24 25 26 26 26 26 25 25 25 26 26 26 27 28 28 29 30 29 30 30 30 30 30 30 29 29 29 29 28 27 26 26 26 26 26 26 26 26 26 26 26 26 26 26 26 26 26 26 26 27 27 27 26 26 26 26 25 25
33 33 33 34 34 34 35 35 35 35 35 35 35 33 29 28 30 28 27 27 23 22 24 26 27 25 21 22 25 27 28 28 27 26 26 25 25 25 25 26 27 27 28 28 28 29 29 29 30 30 30 30 30 29 29 29 28 27 26 26 26 26 26 26 26 26 25 25 25 26 26 26 26 26 26 26 26 26 27 26 26 26 26 25 25 25
31 32 33 34 34 34 33 32 33 34 35 34 33 29 24 23 24 23 23 24 22 23 26 28 27 24 22 24 26 28 29 28 27 27 26 26 25 25 25 26 26 27 27 27 28 28 28 28 29 30 30 30 30 29 29 29 28 27 26 26 26 26 26 26 26 25 25 25 25 25 26 26 26 26 26 27 26 26 26 26 26 26 26 25 25 25
27 31 33 32 32 33 32 30 28 29 32 32 29 26 23 22 22 22 22 23 23 23 26 29 26 22 23 26 28 29 29 28 28 28 27 27 26 26 25 25 26 26 27 27 27 28 28 28 28 29 29 29 29 29 29 27 26 26 26 26 26 26 26 26 26 25 25 25 25 25 26 26 26 26 26 27 26 26 26 26 26 26 26 26 25 25
23 25 30 31 31 32 33 31 29 31 32 32 33 30 25 23 23 22 22 22 22 23 25 27 25 21 22 25 28 30 30 30 30 29 28 28 27 27 26 26 27 27 26 26 26 27 27 27 28 29 28 29 28 27 25 25 25 26 26 26 26 26 26 26 25 25 25 25 25 25 26 26 26 26 26 26 26 26 26 26 26 26 26 26 26 26
23 23 30 33 32 32 32 32 33 32 30 32 35 31 25 26 26 23 23 23 23 23 23 23 23 23 26 28 30 30 30 30 30 29 28 27 27 28 27 27 28 27 27 26 26 27 26 25 27 27 27 28 26 25 24 25 26 26 26 26 26 26 26 26 25 25 25 25 25 25 25 26 26 26 26 26 26 26 26 26 26 26 26 26 26 26
22 24 31 33 32 33 33 33 34 31 28 30 30 27 28 33 30 24 23 24 23 23 22 22 22 24 26 27 28 28 28 28 28 28 27 27 27 27 27 27 27 27 27 27 26 27 25 24 25 26 26 27 25 25 25 25 26 26 26 26 26 26 26 26 25 25 25 25 25 25 25 25 26 26 26 26 26 26 26 26 26 26 26 26 26 26
24 23 29 33 31 33 33 33 34 33 32 30 27 28 32 34 32 27 23 23 23 22 22 22 22 22 22 23 26 27 27 28 27 27 27 27 27 27 27 27 26 26 26 25 26 26 25 24 25 26 25 25 24 24 25 25 26 27 26 26 26 26 26 26 26 25 25 25 25 25 25 25 26 26 26 26 26 26 26 26 26 26 26 26 26 26
27 22 27 33 32 32 34 33 30 32 35 32 30 33 32 26 25 25 23 22 22 22 22 21 21 22 21 23 26 28 28 27 27 27 27 27 27 27 26 26 25 24 24 24 24 24 25 25 25 24 23 22 23 24 24 25 26 26 26 25 26 26 26 26 26 25 25 25 25 25 25 25 26 26 26 26 26 26 26 26 26 26 26 27 26 27
29 23 23 31 33 31 32 30 26 28 32 33 33 34 32 27 25 25 24 24 23 21 22 21 21 21 21 23 25 27 28 27 26 26 26 26 26 26 26 25 24 23 23 23 24 24 25 24 23 21 21 22 24 24 23 24 26 26 25 25 25 25 26 26 26 25 25 25 25 25 26 25 26 26 26 26 26 26 26 26 26 26 27 27 27 27
29 25 22 28 32 29 28 29 28 28 30 30 28 28 28 28 28 27 26 25 24 22 21 21 21 21 23 24 24 24 26 26 25 24 24 25 25 25 25 24 23 23 23 24 25 24 24 23 21 21 22 23 24 24 24 25 25 25 24 24 25 25 25 25 25 25 25 26 26 26 26 26 26 26 26 26 26 26 26 26 26 26 27 27 27 27
26 25 22 24 27 25 27 31 32 31 31 30 29 27 27 27 26 24 24 25 25 23 21 21 21 21 24 25 24 24 26 25 25 24 24 24 24 24 24 23 22 23 23 24 25 25 24 23 21 21 21 22 22 22 23 23 24 23 23 24 24 24 25 25 25 25 25 25 25 26 26 26 26 26 26 26 26 26 27 26 27 27 27 27 27 27
26 26 23 23 25 27 30 33 32 32 33 32 32 31 31 30 26 23 22 23 24 23 22 22 20 21 24 25 24 25 26 25 24 24 23 23 24 24 24 23 23 23 23 24 24 25 24 23 22 21 21 21 21 21 22 22 23 23 23 23 23 24 24 24 24 24 24 24 25 25 26 25 26 26 26 26 26 27 27 27 27 27 27 27 27 27
26 26 23 22 25 28 30 32 33 33 32 31 31 32 31 30 29 27 26 25 23 22 22 21 20 21 23 24 24 25 26 25 24 24 23 23 24 23 23 23 23 23 23 23 23 23 24 23 23 21 21 20 21 21 22 23 23 23 23 23 23 23 23 23 23 24 24 24 23 23 24 24 25 26 26 25 25 25 26 27 27 27 27 27 27 27
24 25 23 21 22 24 25 27 28 29 30 29 30 32 32 31 32 31 28 26 23 22 22 21 20 21 23 24 25 25 26 24 24 24 23 23 23 22 22 22 22 22 22 21 21 22 22 22 22 22 21 20 21 21 22 22 22 22 23 23 23 23 23 22 21 22 23 22 21 21 21 21 22 23 23 23 22 22 23 24 25 26 27 27 27 27
24 25 24 21 21 21 21 22 23 25 27 29 30 31 31 32 31 29 26 23 22 22 22 21 20 21 23 24 24 25 25 24 24 24 23 23 23 22 22 22 22 21 21 21 21 21 21 22 22 22 21 21 21 22 21 21 21 22 22 22 22 22 22 21 21 21 21 21 21 20 20 20 21 21 22 23 23 24 24 24 23 24 26 27 28 28
26 25 25 23 22 22 22 23 26 26 25 26 28 29 30 31 31 29 25 22 22 22 22 22 22 21 22 23 23 25 26 25 24 24 23 23 23 22 22 22 22 21 21 20 21 21 21 21 21 21 21 21 21 22 22 21 21 21 22 22 22 22 22 22 22 22 21 21 22 21 21 22 22 23 23 23 24 25 25 25 25 24 24 26 28 28
25 24 25 25 24 25 26 26 28 28 26 25 26 28 29 31 31 28 24 24 24 22 21 22 23 21 21 24 25 25 26 25 24 24 24 24 23 22 22 22 21 21 21 21 21 21 21 21 21 20 20 20 20 21 21 22 21 22 22 22 22 22 22 22 22 22 21 21 22 22 22 23 23 23 23 23 24 25 25 25 26 25 25 26 27 28
24 23 25 25 25 27 28 28 28 28 28 28 27 28 29 30 29 27 26 27 27 23 21 23 24 23 23 25 25 25 26 25 25 25 24 24 24 23 22 22 21 21 21 20 20 20 21 21 20 20 19 19 19 19 20 21 21 22 21 21 22 22 22 22 21 21 21 21 21 21 22 22 22 23 23 23 23 24 25 25 25 25 25 25 26 27
24 23 25 25 24 25 27 28 29 28 27 27 28 28 29 29 28 28 28 30 28 24 24 25 24 24 25 25 24 25 26 25 25 25 24 24 24 24 23 23 22 21 21 21 20 21 21 21 21 21 20 19 19 19 19 20 21 21 21 21 21 21 21 21 21 20 20 20 21 21 21 21 22 22 23 23 23 23 24 24 24 24 25 25 26 27
24 23 25 25 23 23 26 28 28 28 27 26 27 28 29 28 28 28 28 29 26 24 25 25 24 23 25 25 25 25 25 25 25 25 24 24 24 24 23 23 23 22 22 21 21 21 21 21 21 21 21 20 20 20 20 19 20 20 21 21 20 20 21 21 21 20 20 20 20 20 21 21 21 22 22 22 22 23 23 23 23 24 24 25 26 27
24 23 25 25 22 21 25 26 27 27 27 25 25 26 26 27 27 27 28 28 26 24 24 23 22 22 24 26 26 26 25 24 24 24 24 24 24 23 23 22 22 22 22 22 21 21 22 22 22 22 22 22 22 22 21 20 20 20 20 20 20 20 20 20 20 20 20 20 20 20 20 21 21 21 21 21 22 22 23 23 24 24 25 25 26 26
25 23 23 23 21 21 24 25 26 26 24 22 23 25 26 27 27 28 29 28 27 25 24 22 22 24 25 26 26 25 24 24 23 23 23 23 23 23 22 22 22 22 21 21 21 21 21 21 22 22 22 22 22 22 22 22 21 21 21 20 20 20 20 20 20 20 20 20 20 20 20 20 21 21 21 21 21 22 22 22 23 24 24 24 25 25
24 23 23 23 21 21 23 24 24 23 21 22 25 26 26 26 27 28 27 26 26 26 25 24 24 25 25 25 25 24 23 22 22 22 22 22 22 22 22 22 22 21 21 21 21 21 20 21 21 21 21 21 21 21 22 22 22 21 21 21 21 20 20 20 20 20 20 20 20 20 20 20 20 20 20 21 21 21 21 20 22 23 23 24 24 25
23 23 22 23 22 21 22 23 21 20 21 24 26 27 26 27 28 27 26 26 26 26 25 25 24 24 25 25 24 24 23 22 23 23 22 22 22 22 22 22 22 21 21 21 21 20 20 21 21 21 21 21 21 21 21 22 22 22 22 22 21 20 20 20 20 20 20 20 20 20 20 20 20 20 20 20 21 21 20 20 21 22 22 23 23 23
22 22 22 22 22 22 21 21 20 21 22 25 26 26 26 26 27 26 25 25 25 25 25 24 24 24 24 24 24 23 23 23 23 23 23 23 22 22 22 22 22 21 21 20 20 20 21 21 22 21 21 21 21 21 21 21 22 22 22 22 22 21 20 20 20 20 20 19 20 20 20 20 20 20 20 20 20 20 20 20 21 21 21 22 22 22
23 22 21 21 22 22 21 20 21 21 22 23 25 25 25 24 25 25 23 24 25 25 24 24 23 22 22 23 23 23 23 23 23 23 23 23 23 22 22 22 22 21 21 21 20 21 21 21 22 22 21 21 21 21 21 21 21 21 21 21 21 21 21 20 20 20 20 20 20 20 20 20 20 20 20 20 20 20 20 20 20 20 21 21 21 22
23 22 21 21 21 22 21 20 21 21 20 22 23 25 25 24 25 26 24 23 25 25 24 24 23 21 22 23 23 23 23 22 21 22 23 23 23 22 22 22 22 21 21 21 21 21 21 21 22 21 21 21 21 21 21 21 21 20 20 21 21 21 20 20 20 20 20 20 20 20 20 20 20 20 20 20 20 20 20 20 20 20 20 20 20 21
23 23 22 21 20 21 20 20 20 20 20 21 23 24 25 24 25 26 23 22 24 25 25 24 23 23 23 22 22 23 23 21 21 21 23 23 23 22 22 22 22 21 20 21 21 21 21 21 21 21 20 21 21 20 20 20 20 20 20 20 20 20 20 20 20 20 20 20 20 20 20 20 20 20 20 20 20 20 20 20 21 21 21 20 20 21
22 22 22 20 20 20 20 20 20 20 20 22 23 24 24 24 25 24 21 21 24 26 25 24 23 23 22 21 21 21 21 21 21 22 22 22 22 22 21 21 21 20 20 20 21 20 20 20 20 20 20 20 20 20 20 19 19 19 19 19 20 20 19 19 19 19 19 19 19 20 20 20 20 20 20 20 20 20 20 20 21 21 21 21 21 21
21 21 21 20 20 20 20 20 20 20 21 23 23 23 24 24 23 22 20 21 23 24 25 25 24 23 22 20 20 20 20 21 22 22 22 22 21 21 21 21 21 21 20 20 20 20 19 19 19 19 19 19 19 19 19 19 18 18 19 19 19 19 19 19 19 19 18 18 19 19 19 19 20 20 20 20 20 20 21 21 21 21 21 21 21 21
21 21 21 21 21 21 21 20 20 20 22 23 23 23 23 23 21 21 21 22 22 22 22 24 24 23 22 21 20 20 21 21 22 21 21 21 20 20 20 20 20 20 20 19 19 19 19 18 18 18 18 18 18 18 18 18 18 18 18 18 18 18 18 18 18 18 18 18 18 18 18 19 19 19 20 20 20 20 21 21 21 21 21 21 21 21
21 20 20 21 21 21 21 20 20 20 21 23 23 22 22 22 21 21 22 22 21 21 22 22 22 22 22 21 21 20 20 21 21 21 21 21 20 19 19 19 19 19 19 19 18 18 18 17 17 18 18 17 17 17 17 17 17 17 17 17 17 17 17 17 17 17 17 17 17 18 18 18 18 19 19 19 20 20 20 21 21 21 21 21 21 21
21 21 20 20 21 20 20 20 20 20 21 22 22 21 21 21 21 22 22 21 21 21 21 21 21 22 21 21 20 20 20 20 20 20 20 20 19 18 18 19 19 18 18 18 17 17 17 17 17 17 17 17 17 17 17 16 16 16 16 16 16 16 16 17 17 17 17 17 17 17 17 17 18 18 18 18 19 19 20 20 21 21 21 21 21 21
21 21 20 20 20 20 20 20 20 21 22 22 21 21 21 22 22 22 22 21 21 21 21 21 21 21 21 21 20 20 20 20 20 20 20 19 19 18 18 18 18 18 18 17 16 16 16 16 16 16 16 16 16 16 16 16 16 16 16 15 16 16 16 16 16 16 16 16 17 17 17 17 17 18 18 18 19 19 20 20 20 21 21 21 21 21
21 21 21 20 21 21 22 21 21 22 22 22 22 22 22 22 22 22 22 21 21 21 21 21 21 21 21 20 20 20 20 20 20 20 19 19 18 18 17 17 17 17 17 16 16 16 16 16 16 16 16 15 15 15 15 15 15 15 15 15 15 16 16 16 16 16 16 16 17 17 17 17 18 18 18 19 19 19 20 20 20 21 21 21 21 21
20 20 20 20 20 20 20 20 21 22 22 21 21 22 22 22 22 22 22 21 21 21 21 20 20 20 20 20 20 19 19 19 19 18 18 18 18 17 17 17 17 17 16 16 16 16 16 16 16 15 15 15 15 15 15 15 15 15 15 15 15 16 16 16 16 16 16 16 16 17 17 17 18 18 18 19 19 19 20 20 21 21 21 21 21 21
19 19 19 19 19 19 19 18 20 21 22 22 21 21 21 22 22 22 22 21 21 20 20 19 19 20 20 20 20 19 19 19 18 18 18 18 17 16 17 17 17 17 16 16 16 16 16 16 15 15 15 15 15 15 15 15 15 15 15 15 15 15 16 15 15 15 15 16 16 16 17 17 17 17 18 18 18 18 19 19 19 20 20 20 20 20
19 19 19 18 18 18 18 18 19 20 21 21 21 21 21 22 21 21 21 21 21 20 20 19 19 20 20 19 19 19 19 19 18 18 18 17 16 16 17 17 17 17 17 16 16 16 16 15 15 15 15 15 15 15 15 15 15 15 15 15 15 15 15 15 15 15 15 15 15 16 16 16 16 16 16 17 17 17 18 18 18 18 19 19 20 20
19 18 19 18 17 18 18 18 18 18 19 19 18 19 20 21 21 21 21 21 21 20 20 20 19 19 19 19 18 19 19 18 18 17 17 17 17 17 17 17 17 17 17 16 16 16 16 16 15 15 15 15 15 14 14 14 14 14 14 14 14 14 15 15 15 15 15 15 15 15 15 15 15 16 16 16 16 16 17 17 17 18 18 18 19 19
19 19 19 18 17 18 18 17 17 17 18 18 17 17 17 19 21 21 20 21 21 20 19 20 19 19 19 19 19 18 18 17 18 17 16 17 17 17 17 17 17 17 16 16 16 16 16 16 15 15 15 14 14 14 14 14 14 14 14 14 14 14 14 14 14 14 14 14 14 14 15 15 15 15 15 15 15 16 16 16 16 17 17 17 18 18
Height
751 766 772 772 770 765 760 758 756 752 750 751 754 759 756 763 777 773 773 773 770 789 804 803 807 809 807 806 804 805 807 807 805 803 803 803 802 802 800 800 802 804 803 802 804 807 809 812 814 817 820 823 826 829 831 833 835 838 839 841 843 845 846 848 849 851 852 853 854 855 857 858 859 860 861 862 863 864 864 865 865 866 867 867 868 868
754 771 772 763 760 755 752 751 750 749 749 751 757 760 756 761 773 770 769 771 766 785 804 799 805 813 806 804 804 804 808 807 803 803 804 803 803 802 802 803 802 802 801 801 804 806 808 811 814 817 820 822 825 828 831 833 836 838 839 841 842 844 846 848 849 851 852 853 854 855 856 858 859 860 861 862 863 864 864 865 866 866 867 868 868 869
766 771 763 752 749 748 747 746 747 749 749 754 756 758 764 765 771 772 768 767 765 783 805 800 804 815 806 802 804 803 804 804 802 801 802 804 803 802 804 805 802 802 802 802 804 806 808 811 814 817 820 822 825 828 830 833 835 837 839 841 842 844 846 848 849 851 852 853 854 855 856 858 859 860 861 862 863 864 865 865 866 867 868 868 869 870
773 766 753 744 743 746 749 745 746 750 750 755 756 759 768 765 771 783 778 769 765 777 796 796 802 812 808 805 806 804 803 802 802 802 801 803 803 802 803 803 802 802 803 804 804 805 807 810 813 816 819 821 824 827 830 832 835 837 838 840 842 843 845 847 849 851 852 853 855 856 857 858 859 860 861 863 864 865 865 866 867 867 868 869 869 870
764 752 742 742 742 744 750 747 746 752 755 754 751 754 762 761 764 774 774 770 769 777 785 792 810 817 810 816 815 806 807 807 805 805 804 803 801 802 802 801 801 800 801 803 804 804 806 810 813 815 818 821 823 826 828 831 833 835 838 840 841 843 845 847 849 851 852 853 855 856 857 858 859 860 861 863 864 865 865 866 867 867 868 869 869 870
753 739 735 742 744 742 748 750 746 749 756 755 747 742 746 753 760 764 766 771 786 797 786 785 819 829 809 813 820 813 812 812 811 810 808 805 802 803 803 801 800 799 799 800 802 803 806 809 812 814 817 820 822 825 827 830 832 834 836 839 841 843 845 847 848 850 852 853 854 855 856 857 858 859 861 862 863 864 865 866 867 867 868 868 869 870
744 732 731 741 744 743 747 749 742 740 755 759 743 732 734 744 758 763 763 772 791 799 780 771 805 829 816 808 811 813 816 816 815 812 808 805 804 803 802 801 799 799 798 799 800 801 804 808 810 813 816 819 821 824 826 829 831 832 835 837 840 842 844 846 848 850 851 852 853 854 855 856 857 858 860 861 862 864 864 865 866 867 868 868 869 869
738 734 734 737 741 746 748 749 739 733 752 758 733 725 734 739 752 760 765 775 777 776 777 771 784 817 826 810 800 803 813 817 815 811 807 805 804 802 801 799 798 798 798 798 799 800 802 806 809 811 815 817 820 823 826 828 830 831 834 837 839 841 844 845 847 849 850 852 853 854 855 856 857 858 859 861 862 863 864 864 865 866 867 868 869 869
730 736 737 735 742 748 745 741 732 730 747 745 724 724 731 733 742 754 770 777 763 771 797 785 777 811 828 808 796 800 810 816 812 808 808 805 803 801 800 799 797 796 796 796 797 799 801 804 807 810 813 816 819 822 825 827 829 831 833 836 839 841 843 844 846 848 849 851 852 853 855 856 857 858 859 860 861 862 863 863 864 865 866 867 868 869
726 728 725 728 739 743 737 730 724 730 740 730 720 725 727 728 735 744 761 765 756 777 804 787 775 808 828 810 800 805 808 809 805 802 804 802 801 800 799 798 796 795 795 794 795 797 799 803 806 809 812 815 818 820 824 826 828 831 833 836 839 840 843 844 845 847 848 850 851 853 854 855 857 858 859 860 860 861 862 863 864 864 865 866 867 868
721 716 717 722 728 728 726 724 721 724 727 722 725 732 734 735 736 741 748 751 767 786 787 777 772 794 823 818 803 800 797 795 798 799 799 799 799 799 798 797 796 795 795 795 795 795 798 801 804 807 810 813 816 818 821 824 827 829 832 835 838 840 842 844 845 846 847 849 851 852 853 854 856 857 858 859 859 860 861 862 862 863 864 865 866 867
722 722 723 717 715 717 721 724 721 719 720 726 734 739 749 753 747 754 755 757 786 794 771 764 765 780 812 814 797 791 785 784 792 795 797 798 798 798 798 797 795 795 795 795 796 796 797 800 802 805 808 810 814 816 819 822 824 827 830 833 836 839 841 843 844 846 847 848 850 851 853 854 855 856 856 857 858 859 860 861 862 863 864 864 865 866
730 728 723 717 714 715 726 734 732 727 725 732 739 745 765 776 772 782 782 777 791 785 760 756 766 784 800 794 786 786 780 781 785 786 790 793 795 797 797 796 794 794 795 795 796 796 797 798 800 802 805 808 811 814 817 820 822 825 828 831 834 837 839 841 843 845 846 847 849 850 851 852 854 854 855 856 857 858 859 860 861 861 863 863 864 865
742 733 723 726 726 718 727 742 747 742 736 739 745 751 770 785 793 803 796 788 790 778 757 751 771 797 799 786 783 781 777 778 778 779 783 786 790 794 794 794 794 793 794 796 796 797 796 797 799 801 803 806 809 812 815 820 823 824 825 828 831 834 837 839 841 843 845 846 847 849 850 851 852 853 854 855 856 857 858 859 860 861 862 863 863 864
756 755 735 732 735 726 729 736 739 740 738 739 735 742 760 769 784 798 793 792 793 779 760 756 779 806 804 791 782 774 774 775 775 777 779 782 786 788 791 792 793 793 794 797 799 797 796 796 798 800 802 805 807 812 817 822 824 822 822 824 827 830 834 836 838 841 842 844 846 847 849 850 851 852 853 854 855 856 857 859 860 861 861 862 863 863
757 757 730 721 724 725 731 727 723 736 745 738 728 740 757 751 757 773 774 773 775 775 777 782 794 798 789 783 774 771 776 776 777 780 781 785 786 786 791 792 791 793 793 796 798 796 796 798 800 799 800 804 807 811 816 819 820 820 820 823 826 828 831 834 836 838 840 842 844 846 847 849 850 851 852 853 855 855 856 858 859 860 861 862 863 863
765 757 728 720 722 719 726 724 719 736 750 743 739 750 746 731 740 763 770 763 763 784 800 801 804 797 790 793 785 782 787 784 784 786 785 789 788 788 793 792 792 794 792 793 794 794 796 800 802 801 800 803 806 809 813 816 817 818 820 822 824 827 829 832 834 836 838 840 842 844 845 847 849 850 851 852 854 855 855 857 858 859 860 861 862 863
763 763 734 722 728 718 713 720 719 721 732 743 751 746 732 729 737 753 775 780 777 797 809 804 806 805 806 810 798 792 795 791 789 790 789 791 792 793 794 793 794 794 793 794 794 794 796 798 801 802 802 804 807 811 814 815 816 817 819 821 822 823 826 829 832 834 836 838 840 842 843 845 847 848 850 851 852 854 854 856 857 858 859 860 861 862
753 768 744 717 726 723 711 724 735 725 720 731 737 729 732 754 760 757 775 789 789 803 817 818 816 811 810 807 794 791 795 793 792 792 792 795 795 797 796 795 797 797 797 798 797 798 797 798 802 804 806 810 812 814 816 817 816 816 819 820 821 822 824 827 830 832 834 836 838 840 841 843 845 846 848 850 851 853 853 855 856 857 858 859 860 861
748 770 764 727 721 728 723 734 751 745 729 725 727 729 734 750 761 759 763 771 781 801 822 833 834 825 817 807 797 793 791 791 796 796 796 799 798 798 798 798 801 800 800 800 800 800 799 800 804 807 810 814 814 815 816 817 817 815 818 819 820 823 824 826 828 830 833 835 837 839 840 842 843 844 846 848 850 851 852 854 855 856 857 858 859 860
748 763 772 744 725 737 743 743 748 747 742 739 743 748 746 745 751 756 757 754 763 792 818 833 840 829 811 801 803 801 793 792 798 799 800 801 800 800 800 801 803 802 801 801 800 801 800 802 805 806 808 810 811 814 815 815 816 816 818 819 819 822 823 825 828 830 832 833 835 837 838 840 841 843 845 847 849 850 851 853 854 855 857 857 858 859
758 763 770 757 745 752 749 736 733 736 737 741 746 749 751 751 756 768 774 757 749 773 798 816 834 829 805 795 800 801 796 794 796 799 803 803 802 803 802 803 806 805 803 802 801 802 803 805 806 805 806 809 812 815 815 815 816 817 818 819 820 822 823 825 828 830 832 833 834 835 836 837 839 841 844 845 847 849 850 852 854 855 856 857 858 858
757 762 768 763 754 752 742 728 729 731 729 733 738 740 744 748 754 770 783 770 758 770 781 796 825 826 803 794 799 798 795 795 797 800 804 806 804 804 804 805 807 807 806 805 803 804 805 807 808 806 806 809 813 815 815 816 817 818 819 820 821 822 823 825 827 828 830 832 833 833 834 835 837 839 841 843 846 849 851 852 854 855 856 856 857 858
757 762 769 768 756 745 735 727 728 729 732 741 741 737 742 748 748 753 762 763 769 782 787 802 828 826 805 798 799 798 796 797 800 802 804 808 807 807 808 807 807 809 810 809 808 808 809 810 810 808 807 809 813 815 815 816 817 818 819 820 822 822 823 824 825 825 826 828 831 833 834 834 835 837 840 843 846 848 851 853 854 855 856 856 857 857
769 770 773 780 778 767 758 753 750 743 742 749 747 740 741 744 743 746 751 758 776 788 790 807 829 825 806 798 797 797 798 802 805 804 806 810 811 812 813 810 809 811 812 814 814 813 812 813 812 810 808 811 814 816 816 817 818 819 820 821 822 822 822 824 826 827 827 829 832 835 836 836 836 837 841 844 847 849 850 851 853 855 855 856 856 856
772 773 775 789 800 799 794 787 777 766 757 753 749 745 743 741 744 752 758 771 789 791 788 802 821 821 807 800 801 800 799 804 807 806 809 811 813 816 816 814 813 812 813 815 816 816 815 815 815 813 811 812 815 817 817 818 819 820 821 821 822 822 822 824 828 830 831 832 833 834 836 836 837 838 841 843 845 846 847 848 851 853 854 854 855 855
769 770 770 781 790 791 789 780 769 765 765 761 755 751 747 743 746 753 762 777 787 789 792 797 804 815 815 806 803 801 799 803 806 807 810 813 815 818 817 817 817 816 816 816 816 817 818 817 818 817 815 814 814 815 817 818 819 820 821 822 823 823 823 824 827 830 831 832 831 831 833 835 835 836 838 841 842 842 842 844 847 850 851 851 852 852
774 777 770 771 774 771 769 764 759 761 764 763 761 757 751 746 747 754 764 773 775 786 804 799 791 807 815 803 800 800 799 802 805 806 810 812 814 817 818 818 819 819 820 819 820 821 820 821 821 821 821 820 818 818 818 820 820 821 822 823 823 824 824 825 827 828 830 830 829 829 831 832 833 834 836 838 839 839 839 840 843 847 849 849 849 849
779 784 773 769 770 765 762 760 759 761 762 761 761 758 752 749 752 757 760 761 762 778 797 795 789 798 802 798 801 800 797 800 802 804 807 809 812 815 817 818 820 822 823 824 825 825 824 824 824 824 826 826 825 824 823 823 823 822 823 823 823 825 826 826 827 827 828 828 828 829 830 831 833 833 834 836 837 837 836 837 840 843 846 847 847 847
779 784 775 774 776 770 765 761 759 761 763 762 761 758 755 756 758 758 757 755 760 773 783 784 789 793 792 795 800 798 795 798 800 802 806 808 811 814 816 819 821 824 826 827 828 828 827 827 827 827 829 830 829 828 827 827 825 824 824 825 825 826 827 828 829 828 827 828 829 830 830 831 832 832 833 835 836 836 835 836 839 840 843 844 845 845
778 784 775 773 782 779 768 762 762 764 766 766 765 763 761 761 762 761 759 759 767 778 781 785 796 800 794 791 794 795 796 798 801 804 807 809 811 814 818 821 822 824 826 827 828 828 828 828 829 829 829 830 829 828 828 829 828 827 827 827 827 828 828 829 830 830 829 830 831 831 830 831 832 832 833 834 836 836 835 835 837 838 839 841 842 843
778 784 777 777 790 789 773 767 768 765 766 770 771 771 770 767 766 764 761 763 772 781 788 797 806 806 797 790 792 795 796 801 804 806 807 810 812 816 821 823 824 826 826 827 828 829 829 829 829 829 829 829 829 828 829 830 830 830 830 830 830 830 830 830 830 831 831 831 831 831 831 831 832 833 833 833 834 835 835 835 835 836 838 839 840 841
779 785 786 787 797 793 778 774 771 769 780 788 780 775 774 769 765 763 762 764 768 776 788 798 800 796 790 788 793 796 799 804 807 808 810 812 814 818 822 824 826 827 828 829 830 830 830 830 829 830 830 830 830 829 830 831 831 832 832 832 832 832 832 831 831 831 831 831 832 832 832 832 832 832 832 831 831 833 835 837 836 836 837 838 838 839
782 787 789 791 799 798 784 777 779 788 801 798 778 768 771 770 766 767 770 771 770 772 780 786 788 788 788 789 793 797 802 805 808 810 811 812 816 820 823 824 827 828 830 831 832 832 832 832 831 831 832 832 832 831 831 831 832 833 833 833 833 833 833 833 832 832 832 832 832 831 831 831 831 831 831 830 830 832 837 840 838 835 836 836 836 837
789 792 793 791 797 799 788 788 803 811 802 784 769 765 768 767 765 768 773 774 772 774 778 784 788 789 789 792 794 796 801 803 806 809 811 813 817 821 824 826 828 829 831 832 833 833 833 833 833 833 833 834 834 833 833 832 832 834 835 835 835 835 835 835 835 835 834 834 833 832 832 831 830 830 831 831 831 834 839 842 837 834 835 835 835 835
794 798 799 795 797 800 798 803 814 811 791 775 771 770 770 772 772 775 782 781 776 777 781 787 793 793 792 794 796 798 801 803 806 810 811 813 817 821 825 828 828 830 832 833 834 834 834 834 834 834 835 836 836 836 835 835 834 835 836 836 836 837 837 837 837 836 836 836 835 835 835 834 833 833 834 835 836 837 840 839 835 833 833 833 834 835
792 798 802 802 800 800 804 805 802 799 794 786 780 777 777 781 780 781 790 790 780 778 783 789 796 802 801 798 798 800 803 806 812 814 812 814 818 821 825 827 828 830 832 833 835 835 834 835 834 835 836 836 836 837 837 837 837 836 837 837 837 838 838 838 837 837 837 837 837 837 837 837 837 838 839 839 839 839 839 837 834 832 832 832 833 833
791 796 802 807 803 799 805 809 806 810 812 800 787 779 776 779 777 775 787 794 785 780 784 787 794 802 803 801 801 801 804 813 822 820 814 815 818 820 824 827 828 830 832 833 835 835 835 835 835 836 837 836 837 837 837 837 838 838 838 838 837 838 838 838 838 838 838 838 837 837 837 837 838 839 839 839 838 838 837 835 834 833 832 833 832 832
792 793 797 807 809 804 810 815 814 817 816 802 790 781 776 779 776 775 793 803 790 780 783 788 794 798 800 803 803 802 809 821 827 821 815 815 818 820 824 826 828 831 833 834 834 835 835 835 836 837 838 838 838 838 837 838 838 838 839 838 838 838 838 838 839 839 839 839 838 838 838 837 837 837 837 837 836 835 835 834 833 833 833 833 833 832
799 798 801 810 812 808 811 814 811 813 809 796 787 783 780 778 776 789 814 813 790 779 782 786 792 797 800 807 810 810 815 821 821 818 815 815 818 821 823 826 829 831 833 834 834 835 835 835 836 837 838 838 839 839 839 839 839 839 840 840 839 840 840 840 841 840 840 840 839 839 838 837 837 836 835 834 833 832 833 833 832 832 832 832 833 832
803 802 804 809 809 807 809 811 811 810 801 789 786 785 781 781 788 807 819 806 787 784 784 783 789 794 798 806 814 817 817 813 812 814 814 816 820 823 825 827 829 831 833 834 835 835 836 837 837 838 839 839 839 839 839 839 839 840 840 840 841 841 841 842 842 841 841 841 840 839 838 837 837 836 834 833 831 830 830 831 831 831 831 831 831 831
808 806 805 806 807 806 805 807 812 811 797 785 787 786 783 792 806 810 803 793 789 791 787 786 791 794 797 803 810 814 814 811 810 814 817 819 823 825 826 828 830 832 834 835 836 837 837 838 839 839 840 840 840 840 840 840 840 841 841 840 841 841 841 841 841 841 841 840 840 839 838 837 837 836 835 833 831 830 829 828 829 829 829 829 829 828
807 810 811 805 802 803 804 807 816 817 799 785 788 792 791 799 805 799 793 792 792 791 789 792 794 795 798 804 808 810 812 813 814 817 819 822 824 826 828 830 831 834 835 836 838 839 839 840 840 841 841 841 841 841 841 841 841 841 841 841 841 841 841 840 840 840 839 839 839 838 837 837 836 835 834 833 832 831 829 828 827 827 827 827 826 825
802 808 813 808 803 808 815 815 814 809 796 787 792 797 796 795 794 792 793 795 793 792 794 796 797 798 799 803 807 810 812 815 817 819 820 823 825 827 830 831 832 835 836 837 839 840 840 842 842 842 842 842 842 842 842 842 842 841 842 842 841 841 840 839 839 839 838 837 837 836 836 835 834 833 832 832 831 831 829 828 827 827 826 826 825 825
800 801 807 807 803 805 809 808 802 797 792 790 793 795 793 792 790 791 793 795 795 796 796 797 801 802 801 803 807 809 812 815 817 819 821 823 825 828 830 832 833 835 836 838 840 841 842 843 843 843 844 843 843 844 843 843 843 843 843 843 842 841 840 839 839 838 837 836 835 835 834 833 832 831 830 829 829 829 829 828 827 826 826 825 824 824
797 795 799 802 801 797 796 795 793 792 792 792 792 793 792 792 792 792 793 795 797 797 797 799 802 803 804 805 807 809 811 814 816 819 821 824 826 828 830 832 834 835 837 838 840 841 842 843 843 843 844 844 844 844 844 844 844 843 843 843 842 841 840 840 839 838 837 836 835 834 833 832 831 830 829 828 827 827 827 827 826 825 825 824 823 823
798 799 800 803 805 804 804 800 795 792 792 792 793 794 794 794 794 794 795 797 797 798 799 799 801 803 805 806 807 809 811 812 815 820 822 824 826 828 830 832 834 835 837 838 839 841 841 842 842 843 843 843 843 843 843 843 843 842 842 842 841 841 840 839 839 838 837 836 835 834 833 831 831 830 829 828 827 826 825 826 825 825 824 823 823 822
803 803 805 807 808 808 809 805 798 794 792 791 794 796 796 796 797 796 796 797 798 799 801 801 802 804 806 807 808 810 812 814 817 820 822 824 826 828 829 832 834 835 837 838 839 840 840 840 841 841 841 842 842 842 842 842 842 842 841 841 840 840 839 839 838 838 837 836 835 833 832 831 830 829 828 828 826 825 824 823 823 823 823 822 822 821
803 805 807 809 810 809 807 804 801 798 795 794 795 796 796 796 798 798 799 799 800 801 803 804 805 806 807 808 810 811 813 816 818 819 822 824 826 827 829 831 833 834 836 837 837 838 838 839 839 839 840 840 840 840 841 840 841 841 840 840 840 839 839 838 838 837 837 835 834 834 832 831 830 829 828 827 826 825 823 822 822 822 820 820 820 820
804 808 806 809 814 813 809 806 806 806 805 803 801 800 798 797 797 798 800 800 800 802 804 805 807 807 808 810 811 812 815 817 817 820 822 824 825 827 829 830 832 833 834 835 836 837 837 837 838 838 838 839 839 839 839 839 839 839 839 839 839 838 838 837 837 836 836 835 834 833 832 831 831 829 828 827 826 824 823 821 821 821 819 818 818 817
803 805 804 808 813 811 807 805 805 807 808 806 803 802 801 799 798 798 799 800 800 801 802 804 806 808 809 810 811 813 815 816 818 820 822 823 825 826 827 829 830 831 832 834 834 835 836 836 836 837 837 838 838 838 839 838 838 838 838 837 837 837 836 836 835 835 834 834 833 833 832 831 830 829 828 827 825 824 822 820 819 818 818 818 817 815
Wind_Speed
3 3 4 5 5 8 9 10 10 11 13 11 5 5 8 6 9 12 15 15 14 9 9 12 9 7 7 7 8 7 5 3 4 2 3 3 2 1 4 9 12 9 8 15 22 23 21 24 26 27 29 29 27 25 25 26 25 24 25 25 23 21 21 22 20 17 19 20 16 16 15 14 15 14 14 15 14 14 12 12 13 13 14 15 13 12
5 4 5 8 9 10 11 12 12 13 13 11 6 6 7 3 11 14 17 16 13 7 7 10 11 9 8 8 7 9 8 6 6 6 5 4 3 3 1 5 11 9 9 14 17 19 22 25 25 26 28 28 27 26 26 27 25 23 25 25 23 22 21 22 21 18 20 19 15 17 15 13 15 15 15 15 15 15 13 12 13 13 14 14 13 12
5 5 7 10 10 11 11 11 12 14 11 7 6 6 3 8 12 12 16 17 12 6 6 9 9 8 8 7 8 9 8 5 6 6 6 6 5 6 3 3 7 10 10 11 13 16 21 25 25 25 26 27 28 27 26 27 25 23 26 25 23 23 22 22 21 18 19 17 14 16 15 13 14 15 14 14 15 15 13 12 11 12 13 13 13 12
4 5 9 11 10 11 11 10 11 11 8 5 6 4 3 13 13 9 12 16 11 7 10 11 7 5 6 5 5 5 3 1 4 4 4 6 6 7 7 4 5 10 11 11 11 13 18 23 24 23 25 26 28 27 26 28 26 24 26 25 23 23 21 22 21 18 18 16 14 15 15 14 14 13 14 13 15 15 14 12 11 12 12 11 12 11
5 8 11 12 11 11 11 10 9 7 5 6 8 5 5 12 13 12 13 12 9 10 14 12 6 3 6 7 5 3 2 0 2 5 5 6 6 6 6 5 5 7 11 12 11 12 15 20 23 23 25 27 28 27 26 28 27 25 26 24 23 23 21 20 22 19 17 16 15 16 15 16 16 14 14 15 16 16 15 13 12 12 11 10 11 11
7 9 12 12 12 10 10 9 8 7 4 5 8 9 7 8 14 17 18 13 6 7 13 11 5 2 7 10 9 6 6 6 5 6 8 7 6 5 5 5 4 4 9 12 11 12 15 18 23 24 25 27 27 27 27 27 27 25 28 25 22 23 21 19 21 18 17 18 17 17 15 17 19 18 18 18 17 18 17 14 12 12 12 11 11 11
6 9 11 12 11 10 9 8 9 8 4 3 6 10 10 6 14 16 17 14 6 6 14 12 4 3 5 7 11 12 11 11 9 9 9 6 5 5 5 5 4 2 6 10 11 13 15 18 22 22 24 26 27 28 28 26 26 26 29 28 23 23 21 18 20 18 18 19 17 17 16 16 18 18 17 17 16 18 17 14 13 13 12 12 13 12
7 10 9 11 10 9 7 6 7 7 5 4 5 9 9 8 12 13 9 7 7 8 12 11 5 5 4 5 10 15 13 11 11 10 7 7 7 6 4 4 4 4 5 7 10 12 14 19 22 22 24 26 27 28 28 25 25 27 30 30 24 24 22 18 19 18 18 20 18 17 16 16 17 15 15 16 15 16 15 15 16 14 12 12 13 13
9 10 9 11 10 7 5 5 7 6 5 7 8 7 8 8 10 14 10 7 6 8 8 8 7 6 3 5 9 12 12 11 12 11 8 9 9 7 6 5 5 5 5 5 8 11 14 18 24 25 23 25 27 29 28 26 26 28 30 30 25 24 23 20 20 19 18 20 19 17 15 16 17 15 14 15 14 13 13 15 17 15 14 13 12 13
8 9 9 8 7 6 6 7 9 7 6 7 9 7 3 4 6 9 11 8 4 5 8 10 9 5 2 5 8 9 10 11 12 12 11 11 10 8 7 6 5 6 6 5 6 11 17 20 24 26 25 25 27 29 29 26 27 29 30 29 26 24 23 21 22 20 18 20 20 19 16 16 17 15 14 15 14 13 12 15 16 16 16 14 13 13
7 9 9 6 5 7 8 8 9 8 6 5 7 6 4 3 4 2 4 4 2 1 7 15 14 8 4 6 7 7 8 10 10 10 10 11 11 10 8 7 6 5 5 4 4 8 16 22 25 28 26 25 26 29 30 27 28 30 31 30 27 25 24 22 23 22 20 20 20 20 18 15 18 17 17 18 16 14 14 15 16 16 15 14 13 13
9 9 5 3 4 3 4 7 7 7 6 5 5 3 2 3 2 2 2 3 2 3 5 14 13 7 3 6 7 5 7 12 12 10 10 11 11 10 8 7 6 5 4 4 4 5 9 15 21 25 26 25 24 28 29 27 29 32 31 31 28 25 24 22 24 23 21 21 21 22 19 16 17 18 19 20 17 16 16 15 16 16 15 14 13 12
7 5 4 1 2 3 2 3 4 6 6 6 4 2 0 1 1 3 2 2 2 3 4 5 8 4 0 6 10 9 9 13 11 10 12 12 11 10 9 8 6 5 5 4 4 4 5 7 12 18 25 25 22 27 30 26 29 33 32 31 29 28 25 22 24 24 22 22 21 22 21 17 17 17 18 20 18 17 17 15 16 16 16 15 14 14
1 1 5 5 3 2 4 1 3 3 3 4 4 4 3 1 1 3 3 2 1 4 6 1 9 4 1 7 10 11 13 13 11 11 12 11 12 12 10 8 7 6 5 4 3 3 4 6 8 13 20 22 23 27 25 18 21 29 32 32 29 29 27 23 25 26 24 23 22 22 23 19 18 17 16 18 18 18 18 17 16 16 16 16 15 16
2 3 4 5 4 5 6 7 5 2 2 4 4 3 4 2 3 4 2 2 2 4 5 2 5 3 2 6 8 10 12 11 10 10 10 10 10 10 9 8 9 8 6 5 4 4 4 5 5 11 15 17 20 21 16 13 17 24 31 34 30 29 29 25 25 27 25 24 22 21 23 21 19 18 16 17 18 17 18 18 17 16 16 16 15 15
3 3 7 9 8 11 10 10 6 2 1 5 4 2 4 3 2 3 3 4 4 2 2 2 3 2 3 7 7 8 10 10 10 10 10 9 7 7 7 6 7 8 8 8 7 6 6 6 4 11 17 15 19 22 20 20 23 25 28 32 31 30 29 26 25 27 26 25 23 22 22 21 20 19 17 16 17 17 17 17 18 17 16 16 15 15
3 2 4 9 13 14 11 10 6 3 1 3 4 2 4 5 2 3 4 4 4 3 1 2 5 4 5 7 4 4 10 12 11 11 11 9 6 6 5 4 4 4 5 7 5 4 8 6 3 9 17 17 19 23 23 25 27 27 28 30 30 29 29 26 25 27 26 26 25 23 22 21 21 21 20 18 18 17 17 17 18 17 16 15 15 15
2 4 7 9 12 13 11 8 7 6 3 3 5 5 4 5 3 1 2 2 3 4 1 3 9 8 5 6 6 8 11 13 12 12 12 10 9 7 4 4 4 3 3 5 4 4 7 11 10 10 13 16 21 24 24 26 30 29 28 29 30 30 30 27 25 26 26 26 25 24 23 22 22 21 21 20 19 17 17 17 18 18 18 17 15 16
3 3 8 4 6 7 8 4 5 6 4 2 3 3 3 4 3 1 3 1 3 4 2 3 3 3 1 3 10 14 15 14 12 13 12 11 11 7 5 6 6 4 4 5 4 3 2 6 6 8 16 17 16 22 24 25 28 28 27 28 28 29 30 28 26 26 26 26 25 24 24 24 22 22 21 21 20 19 18 18 18 18 18 18 16 15
3 1 4 3 5 5 2 3 1 5 4 3 3 2 1 3 2 1 2 3 2 3 4 3 3 1 2 1 2 6 13 15 11 11 10 9 10 7 6 7 5 5 5 4 3 3 2 5 13 20 21 15 12 16 21 24 25 24 25 27 26 25 27 28 27 25 24 24 24 23 22 24 23 22 21 20 19 20 20 19 19 19 18 18 17 16
3 1 2 4 4 5 1 1 2 3 1 3 2 2 3 2 0 1 1 3 3 3 5 4 2 1 3 1 4 3 6 14 12 10 10 9 9 8 8 8 6 5 5 3 4 4 6 12 16 15 15 18 18 16 19 22 22 19 19 24 26 24 25 27 25 24 24 23 23 22 21 22 24 22 21 20 20 20 21 20 19 19 18 18 18 18
3 2 2 2 2 1 3 3 1 5 4 2 1 3 1 1 1 2 3 3 3 3 6 6 5 1 3 4 6 2 6 13 12 11 10 9 8 8 9 9 7 4 2 4 7 7 10 15 15 11 10 14 15 13 15 17 17 16 14 17 23 23 22 21 20 19 21 21 23 24 21 19 22 24 22 20 19 19 20 20 19 19 20 19 18 19
2 2 3 2 1 4 6 5 4 8 7 5 1 4 3 3 3 2 1 3 4 3 6 6 5 2 1 4 5 3 8 12 11 11 11 8 7 8 9 8 7 6 6 7 9 9 12 15 13 11 9 9 9 9 10 11 11 13 12 12 17 19 18 17 16 17 18 18 19 23 23 19 19 23 23 22 21 19 19 20 20 19 19 19 19 19
4 2 3 3 3 5 6 6 6 5 3 4 3 0 0 4 5 3 3 1 2 4 5 4 5 2 1 2 3 4 11 13 11 11 11 7 6 8 9 7 5 8 9 10 10 10 13 15 12 9 7 6 8 8 8 9 8 10 11 12 13 14 14 14 16 20 20 16 12 15 18 19 19 20 20 18 13 10 11 15 19 21 20 19 20 20
3 3 3 3 4 5 3 3 2 3 4 3 4 3 4 8 7 1 3 3 4 4 3 3 5 3 2 3 4 7 14 15 12 12 11 7 6 7 6 5 6 7 9 10 10 10 10 11 11 9 8 8 8 7 9 11 10 9 8 9 9 8 9 9 10 13 15 12 10 9 7 7 7 8 8 5 5 10 9 9 11 16 21 21 20 20
2 2 2 2 2 2 2 1 2 3 3 4 5 5 7 10 5 2 3 4 4 1 2 4 6 4 3 5 5 5 12 15 12 12 11 8 7 7 5 5 6 7 8 10 9 8 8 9 11 11 9 9 10 11 13 15 15 13 10 6 4 2 1 2 3 5 6 7 10 9 7 6 1 1 6 8 7 10 12 11 11 13 16 23 23 20
2 3 0 4 2 1 3 3 2 2 4 4 4 7 11 11 2 5 3 3 5 2 2 4 12 12 8 9 9 8 12 15 13 13 12 10 10 8 6 6 7 6 7 8 8 7 8 8 11 13 13 13 14 13 14 16 18 18 16 14 12 10 9 6 2 2 2 2 3 4 6 8 5 3 7 11 13 14 15 17 15 11 13 17 25 24
2 3 2 1 1 3 4 4 6 5 5 4 4 8 13 11 2 4 3 4 7 5 4 4 14 17 12 11 12 11 11 12 12 13 11 11 11 9 8 8 9 9 8 8 8 8 8 8 9 12 14 15 17 17 15 15 17 19 18 18 16 15 15 13 8 7 9 10 8 6 4 6 6 5 6 9 14 16 15 16 18 15 12 14 20 28
1 2 6 7 4 3 5 7 6 5 5 6 9 9 7 6 6 3 1 1 3 5 6 9 13 16 14 13 12 10 10 11 13 13 11 10 11 11 11 11 11 11 10 10 9 7 7 7 8 12 13 12 14 16 17 16 16 17 18 18 17 15 16 16 14 13 14 16 14 11 7 5 3 2 3 5 9 13 15 13 13 16 14 13 13 22
1 2 6 8 7 7 7 6 4 6 6 6 9 9 7 8 10 7 4 4 7 10 12 12 12 12 12 13 12 9 10 11 12 13 12 12 12 11 11 12 12 11 11 10 9 7 7 7 8 12 14 12 11 13 14 16 17 18 17 16 16 16 16 17 16 16 19 19 18 15 12 10 7 5 3 1 3 6 9 10 10 14 15 12 10 13
2 3 5 4 5 8 8 2 2 6 6 5 8 9 9 7 8 9 7 6 10 13 12 10 10 8 6 10 13 11 11 11 9 11 12 12 12 12 11 11 11 11 12 11 10 8 7 7 8 11 12 11 12 14 15 16 17 19 18 16 16 18 18 18 17 18 19 19 18 16 14 11 9 7 6 4 2 3 6 7 9 13 14 13 11 11
3 3 6 4 3 4 7 4 3 5 5 5 6 8 9 4 2 5 5 5 9 11 12 10 7 5 5 9 11 13 14 13 10 10 11 11 12 13 11 10 9 10 11 11 10 9 8 8 9 10 11 12 12 14 16 16 16 17 18 17 18 19 17 18 19 18 18 17 17 16 15 11 10 9 8 6 4 0 4 7 10 12 13 12 12 11
4 3 4 4 3 3 7 6 5 3 2 3 4 7 9 7 2 3 6 8 11 12 10 8 6 6 8 10 12 14 15 14 10 9 9 10 11 11 11 10 10 10 11 10 9 8 8 8 10 11 13 14 14 13 13 14 16 18 17 16 18 20 20 19 18 18 18 17 16 15 15 12 11 12 11 8 5 3 3 5 7 8 8 8 8 10
4 4 3 3 2 4 7 8 7 3 2 0 3 7 10 11 7 1 4 10 12 10 7 6 8 9 9 9 11 12 13 13 11 9 10 10 9 9 10 10 10 10 11 10 8 7 8 8 10 12 15 15 14 14 13 13 17 18 16 14 15 18 22 21 19 17 17 16 15 15 14 13 11 13 14 11 7 4 5 7 5 5 5 5 7 8
5 5 3 2 1 3 6 7 5 2 1 1 5 8 9 11 9 7 10 12 12 12 12 11 11 11 10 9 9 11 13 13 12 11 11 11 10 8 8 9 9 9 9 8 7 7 8 8 8 11 16 15 13 14 15 14 14 17 17 16 16 18 20 20 19 17 16 15 15 14 14 12 11 12 13 12 9 6 5 6 4 3 3 5 6 7
4 3 2 2 1 2 3 3 0 2 3 4 7 7 7 8 7 7 10 10 9 11 13 12 9 8 9 9 10 11 12 11 10 9 10 11 10 8 7 7 7 8 9 9 9 9 9 8 8 11 16 15 13 12 13 13 13 14 14 15 16 18 18 17 16 15 14 14 14 13 13 12 10 10 10 10 9 7 7 6 5 4 4 5 6 7
3 2 2 2 2 2 1 2 1 0 2 4 4 3 4 5 5 3 6 6 7 10 11 11 10 7 7 10 12 12 11 10 7 7 9 11 11 10 9 7 7 10 13 15 14 12 9 8 9 13 17 15 13 10 10 11 12 12 12 12 13 15 15 15 15 13 12 11 10 10 10 9 8 8 6 5 5 6 6 6 6 6 5 6 6 7
3 2 3 2 1 2 2 3 2 2 2 3 3 3 5 5 6 4 5 4 5 9 10 10 12 11 9 10 12 12 10 8 5 5 8 11 11 12 11 10 12 15 16 16 15 12 9 9 12 16 17 14 13 12 12 12 12 12 12 13 13 14 15 15 13 11 11 11 9 9 8 8 8 6 5 5 6 7 6 6 6 5 5 6 6 6
2 1 2 1 2 3 2 2 1 1 3 4 3 5 6 6 6 6 5 1 1 8 10 9 10 10 10 9 9 9 8 6 4 5 7 10 11 11 10 10 14 18 17 14 12 11 11 12 15 18 17 14 14 15 14 13 13 13 11 11 12 14 15 14 11 9 9 9 8 8 7 7 8 8 8 9 10 9 9 9 8 8 7 8 8 7
2 1 1 0 2 2 2 3 1 0 2 3 2 5 6 5 5 4 3 3 4 4 9 11 10 10 11 8 3 2 3 4 5 6 8 10 12 13 13 12 14 17 15 12 11 13 15 15 15 16 16 15 15 15 14 13 12 12 10 9 11 12 12 11 9 7 7 7 7 7 7 7 8 9 10 12 13 13 12 11 10 10 10 10 10 9
1 1 2 3 3 3 3 3 1 0 1 1 3 5 5 6 4 3 3 4 4 3 4 7 9 10 11 10 5 2 1 4 7 9 11 12 11 12 14 16 16 16 15 14 15 16 16 15 15 15 15 15 15 15 14 13 11 10 9 9 10 11 10 8 7 6 5 6 7 8 7 7 8 9 11 12 13 15 15 14 13 13 12 11 11 11
2 1 1 3 3 3 3 3 1 1 0 2 5 5 5 3 2 3 3 3 3 6 8 7 7 9 11 11 9 6 4 7 11 12 11 10 8 10 14 16 16 15 15 17 17 15 15 15 14 13 14 14 14 14 13 12 10 9 10 11 11 11 10 8 7 8 7 7 8 8 7 8 8 10 12 12 13 15 17 16 16 15 15 14 14 14
0 1 2 2 2 2 3 1 1 1 1 3 4 4 4 2 3 4 1 4 5 8 9 8 6 9 12 12 10 10 10 10 10 10 10 9 8 11 14 14 14 13 14 17 16 14 13 14 12 11 13 14 13 12 11 11 12 11 12 13 12 10 10 9 9 10 9 9 9 9 9 10 11 13 14 13 13 14 16 16 16 16 16 16 16 16
0 1 1 2 2 1 0 1 2 3 1 4 4 2 2 2 3 1 2 4 6 6 6 7 7 8 11 12 11 11 11 10 8 8 8 8 9 12 13 13 14 13 13 15 15 12 11 11 10 10 12 12 12 11 12 12 12 11 12 12 11 10 10 10 10 10 10 11 11 11 11 12 14 15 16 15 14 14 15 15 16 16 16 17 17 17
1 1 2 2 1 1 2 3 4 4 1 5 5 2 3 2 2 4 5 5 5 5 5 6 7 8 9 10 10 10 9 9 9 7 7 8 8 10 12 13 14 13 13 14 13 11 9 9 8 9 10 10 10 10 11 11 10 10 10 10 9 9 10 10 10 10 11 12 12 13 14 14 15 16 16 16 15 15 15 15 16 17 17 17 18 18
2 3 1 1 2 2 1 4 5 4 2 6 5 3 4 4 4 5 5 5 5 5 5 5 6 7 7 7 8 8 7 8 9 8 7 8 8 10 13 15 14 13 13 12 11 8 7 7 7 8 9 9 10 9 9 9 9 8 8 8 8 8 9 9 10 10 11 12 13 14 15 16 17 17 17 17 17 18 18 18 18 19 19 19 19 20
3 5 3 1 3 3 2 1 1 3 4 7 6 4 5 5 5 5 4 4 5 6 6 6 7 7 7 7 7 8 8 8 9 8 7 6 7 9 13 14 13 12 10 8 6 6 6 6 7 8 9 9 9 9 9 9 9 8 9 9 9 9 9 10 10 11 11 12 13 14 15 16 16 16 16 17 18 19 19 18 17 18 18 16 15 16
3 4 2 2 2 1 2 3 6 5 1 5 6 4 4 5 5 5 4 5 6 7 7 7 8 7 6 6 7 8 8 8 7 7 6 5 6 10 13 12 11 10 8 5 4 5 5 6 8 8 8 9 9 10 10 10 10 10 10 10 10 10 10 10 10 11 12 12 13 13 14 15 16 16 18 19 19 20 21 21 20 20 20 19 18 18
1 1 0 1 1 3 3 2 6 6 3 2 4 3 3 5 5 5 5 4 7 8 7 7 8 6 5 6 6 6 7 8 7 7 5 5 7 10 10 9 8 6 4 3 3 5 6 6 6 7 7 8 9 10 10 10 10 11 11 11 12 12 12 12 12 12 13 12 12 13 14 15 17 19 20 21 21 22 23 23 23 24 25 24 24 23
1 1 1 2 1 3 2 2 4 1 2 2 4 5 3 2 7 6 2 1 4 8 7 6 7 6 6 9 9 6 5 6 8 8 7 6 8 8 8 7 7 5 4 3 5 6 6 5 4 5 6 8 9 11 11 12 12 13 13 13 13 14 14 15 14 13 13 13 13 13 14 16 17 18 19 20 21 22 23 23 23 24 24 25 25 25
2 1 1 2 1 2 2 2 3 3 3 4 4 7 9 5 3 7 6 6 6 8 8 7 7 6 6 8 11 10 7 6 9 9 7 7 8 8 8 8 7 5 5 6 6 5 5 5 4 6 7 9 10 11 12 13 14 15 15 14 14 15 15 15 16 15 14 14 14 15 15 16 16 18 19 20 21 22 24 26 25 24 24 24 24 24
Wind_Direction
179 174 192 213 219 210 217 226 239 246 249 260 244 223 235 182 148 146 144 153 153 134 126 144 166 166 166 180 153 162 191 158 178 180 112 88 52 217 169 150 160 168 172 157 158 170 161 148 148 145 147 151 155 157 152 152 155 158 163 160 158 163 164 164 159 155 159 160 158 155 156 159 159 162 163 163 160 162 175 178 170 165 166 172 166 160
188 202 209 211 220 223 218 215 234 250 255 272 280 270 273 155 136 143 145 156 158 130 119 140 149 158 178 188 162 163 181 180 179 178 158 145 164 196 221 169 165 163 168 160 161 166 153 147 147 145 148 151 151 154 155 156 157 161 163 159 162 165 167 168 162 161 164 162 164 161 161 164 165 166 164 168 169 166 177 183 175 167 168 178 174 164
194 222 225 215 216 228 232 216 221 242 254 268 266 275 302 115 127 141 148 156 157 128 128 145 141 155 186 186 169 176 187 182 175 181 171 159 174 182 198 236 180 163 166 163 164 163 150 147 147 145 148 151 153 153 155 160 160 162 163 163 168 169 170 171 164 165 167 164 166 164 163 166 167 170 169 169 171 171 177 178 175 172 173 179 176 168
183 215 227 229 219 219 239 233 216 230 246 250 253 271 136 137 137 140 156 160 153 128 143 150 132 144 175 169 173 183 178 159 171 177 172 168 185 188 189 224 198 167 165 166 166 160 149 148 149 149 149 151 154 155 156 161 163 164 165 168 173 173 174 174 168 168 169 165 166 166 168 169 166 170 173 169 169 175 179 175 172 174 176 174 173 174
203 199 210 232 234 216 230 243 228 220 226 235 241 243 163 149 145 146 157 158 139 126 140 138 114 148 164 157 181 193 139 199 195 179 181 183 195 202 194 201 200 173 167 169 167 159 153 152 153 154 154 153 156 160 162 164 166 166 168 172 178 177 177 177 173 171 170 168 170 174 174 169 165 165 168 171 172 176 178 176 178 179 179 173 169 174
225 201 192 215 235 224 218 233 235 218 212 233 232 237 229 153 142 152 155 152 133 136 157 148 116 170 173 163 170 179 179 189 208 203 190 183 188 195 198 201 205 179 171 173 167 161 159 155 156 158 157 156 159 165 169 169 168 169 171 174 178 176 176 181 178 173 173 174 176 180 173 161 162 164 168 173 175 176 176 177 182 181 181 177 175 181
238 217 192 200 224 230 219 226 233 210 200 246 210 218 239 184 156 162 155 153 158 165 178 178 131 137 183 177 161 161 175 181 193 206 193 183 188 183 191 208 205 177 177 178 168 164 164 159 159 161 160 160 163 168 173 172 171 173 174 175 177 176 177 182 181 177 179 181 179 177 172 165 165 167 171 176 176 177 180 182 181 178 181 180 180 189
223 226 206 192 206 228 221 223 230 194 176 257 224 195 229 223 171 154 141 172 185 157 176 187 134 116 177 191 161 155 159 168 184 195 192 196 198 183 186 209 206 190 190 186 171 166 166 162 163 165 164 165 166 169 175 176 175 176 176 177 180 179 179 182 182 182 184 186 182 174 173 174 173 172 171 175 178 177 181 187 183 177 180 179 179 190
201 226 221 192 195 220 221 215 222 200 188 239 248 210 213 227 185 148 149 216 201 135 169 185 131 102 151 173 162 151 152 171 181 181 189 204 202 188 184 206 216 196 194 197 177 167 167 165 166 169 170 169 168 170 176 180 178 176 176 178 182 182 182 183 183 186 186 185 184 176 173 177 179 178 173 177 183 182 183 188 184 180 182 181 182 190
181 220 236 209 187 203 217 215 216 215 212 238 264 267 240 235 214 164 164 207 217 137 176 184 150 119 138 166 163 157 167 182 177 174 185 195 197 192 186 203 217 197 193 198 179 171 173 171 168 171 175 174 171 172 177 180 178 175 174 176 181 183 185 185 183 185 186 185 185 181 178 179 180 181 178 182 190 189 185 181 177 179 182 182 184 189
189 195 235 237 181 201 214 204 212 217 212 242 269 279 294 265 237 169 137 166 237 253 185 181 165 133 139 185 182 172 177 179 173 171 174 179 187 186 186 203 207 191 184 172 158 161 171 174 171 171 177 179 174 173 177 179 175 174 173 176 181 183 186 189 186 186 186 187 187 185 186 185 184 187 185 185 193 190 179 174 173 177 182 186 191 193
224 179 208 234 161 214 211 177 212 232 202 216 252 257 288 278 204 121 81 128 178 275 205 178 161 130 142 182 186 189 171 169 173 172 169 176 182 178 184 197 196 188 177 152 140 134 156 174 174 170 175 182 177 171 175 176 172 173 174 175 179 183 187 191 190 189 188 189 190 189 192 192 191 194 188 185 193 190 180 175 178 181 182 189 197 197
239 170 162 103 55 330 335 145 217 245 206 190 226 230 128 322 95 134 180 164 168 246 242 155 114 85 29 142 166 185 164 162 174 174 174 175 173 177 187 192 189 189 179 157 155 156 153 173 180 173 174 181 177 170 174 173 168 170 173 174 177 182 188 192 192 191 190 190 191 191 193 195 197 198 189 187 194 193 187 181 182 186 185 188 196 197
282 316 162 125 79 292 298 287 193 223 213 188 206 190 145 121 115 139 171 162 217 257 257 143 94 89 149 125 150 165 150 157 172 175 175 166 167 178 182 187 190 181 167 147 148 175 168 170 189 182 174 176 174 171 169 160 161 168 172 174 178 182 188 193 192 192 192 192 194 195 195 195 198 201 194 193 198 198 196 191 188 193 192 190 194 198
198 277 174 149 125 170 230 253 228 233 216 216 238 158 144 175 145 141 143 136 205 253 264 240 110 130 168 118 130 136 134 149 158 160 163 157 167 174 168 179 182 166 152 145 169 197 154 127 156 167 164 160 154 152 144 139 163 172 172 176 178 181 187 192 193 193 193 195 197 199 199 197 200 203 201 201 201 201 202 198 196 199 198 197 196 200
242 218 171 175 159 163 208 242 243 285 247 228 274 79 153 208 152 143 176 176 189 218 319 1 82 103 115 106 117 129 122 123 127 130 132 133 150 156 152 167 166 161 161 159 182 192 130 88 85 145 162 153 128 133 147 162 174 175 172 177 180 181 186 190 192 194 196 198 199 201 202 203 203 204 205 205 201 202 206 202 200 203 205 204 201 201
345 289 199 187 166 162 197 233 214 169 147 216 246 263 196 201 184 151 188 206 182 143 65 110 114 109 103 94 95 132 120 114 111 109 107 109 112 112 131 152 136 149 159 148 164 155 129 145 154 146 162 159 136 142 160 172 179 178 174 176 180 182 186 190 193 195 198 199 200 202 203 206 207 206 208 208 205 204 208 207 204 205 209 209 204 202
39 315 285 223 178 161 176 221 233 200 178 172 199 236 223 201 219 133 120 239 189 146 131 136 140 149 143 131 161 165 137 125 119 114 112 112 106 93 102 122 103 88 82 83 97 99 127 162 184 171 148 135 135 151 165 175 181 183 178 176 179 183 185 189 193 196 199 200 202 204 204 205 208 210 210 210 209 207 208 210 209 209 209 209 209 207
31 338 296 244 152 142 157 184 275 272 271 247 205 229 187 172 222 126 103 210 193 146 90 51 106 141 77 133 164 161 144 135 132 123 116 109 105 94 88 103 101 85 63 55 69 66 132 156 143 95 87 90 119 146 158 171 179 181 181 179 181 185 186 189 192 195 199 201 203 205 205 206 208 209 211 211 212 212 211 211 213 214 212 209 210 208
7 32 297 321 82 88 104 121 220 262 261 259 279 312 90 126 152 154 147 181 184 134 117 77 24 306 280 315 148 154 138 130 121 106 95 85 84 73 73 93 93 78 66 46 54 29 346 78 74 76 91 115 156 160 159 173 181 182 184 184 185 188 188 189 192 194 197 199 203 206 208 209 210 210 212 212 213 216 214 214 216 216 215 212 209 207
343 58 284 295 73 72 4 179 204 250 216 222 264 4 29 29 25 270 258 197 189 136 127 134 112 274 264 97 52 11 92 100 94 90 83 71 68 59 59 71 70 70 67 53 62 45 44 77 92 104 129 156 172 174 169 175 180 180 183 189 192 193 192 193 196 198 200 199 201 203 204 208 211 211 212 212 217 221 216 214 218 218 217 218 212 208
347 351 324 275 92 46 251 184 242 282 274 252 172 120 142 283 263 272 288 266 244 150 137 143 130 156 278 120 118 117 91 91 92 94 85 73 73 67 61 64 60 48 35 56 69 70 70 84 110 144 167 164 159 166 174 173 171 171 178 191 198 200 196 195 199 204 209 210 209 206 203 204 207 210 212 212 217 225 220 215 220 222 219 221 217 209
340 314 318 315 59 263 237 175 202 257 281 301 237 147 177 225 226 225 250 294 318 77 111 111 111 159 290 84 111 130 102 95 91 90 84 76 76 70 62 59 60 55 46 52 54 57 69 80 107 146 174 166 133 131 167 173 164 165 175 189 198 201 198 194 196 202 208 214 220 216 211 210 208 206 210 211 213 223 225 221 223 226 224 223 221 214
343 328 315 323 319 279 239 179 184 224 320 326 288 36 30 258 244 196 158 157 44 84 103 99 99 136 280 82 127 127 103 97 94 91 88 80 69 65 58 40 44 61 60 55 46 43 58 68 87 121 144 136 112 111 144 156 152 161 175 183 188 192 193 192 198 207 208 209 223 228 223 224 221 214 212 212 220 241 244 235 232 230 229 230 227 219
336 330 348 346 328 332 357 46 30 346 12 353 300 307 262 260 269 243 100 69 63 83 108 113 108 139 204 148 133 125 112 108 106 105 102 98 83 72 64 41 35 53 61 60 51 43 49 56 69 91 104 110 115 115 115 118 122 131 155 178 186 190 189 182 192 213 218 214 222 240 259 258 240 232 231 238 319 319 300 289 275 249 233 229 231 226
287 306 7 40 4 25 70 11 337 326 331 314 298 301 270 269 297 40 74 65 70 96 133 127 119 126 147 119 117 140 127 119 118 118 115 114 105 95 93 74 53 48 52 58 56 45 42 47 55 64 74 87 98 97 90 90 94 95 96 109 126 128 151 162 194 223 235 238 232 238 285 313 18 153 249 245 258 264 251 258 291 294 256 230 226 230
306 298 155 121 101 108 192 223 284 306 307 298 288 293 282 279 2 84 79 89 125 130 37 122 135 137 149 148 152 159 135 124 128 129 126 125 122 117 110 95 84 74 58 57 58 47 42 48 53 51 45 49 63 76 84 86 84 82 80 78 76 71 70 77 120 177 100 98 203 212 245 255 230 217 252 244 236 239 233 228 239 279 290 248 224 223
0 327 341 72 228 248 257 301 342 333 326 350 332 281 263 266 345 70 68 106 135 116 56 130 139 138 154 159 147 142 135 131 132 129 129 131 129 126 119 104 93 86 75 67 62 51 46 48 57 61 52 42 44 52 65 80 83 79 75 71 68 65 64 72 90 101 90 84 81 97 162 213 224 238 251 240 237 238 232 229 232 237 271 280 237 219
46 319 342 340 316 294 289 300 328 329 331 358 344 319 290 305 343 8 75 103 117 115 138 164 148 139 147 145 138 142 140 131 124 122 124 126 130 135 130 116 101 91 86 81 75 67 60 53 59 73 72 58 51 51 53 61 72 75 73 69 66 61 59 66 79 87 82 74 69 74 98 121 137 189 213 224 239 237 229 237 241 225 240 284 256 219
69 322 344 349 348 344 311 282 315 335 343 354 339 344 10 9 2 357 356 40 86 114 137 151 139 131 135 134 139 146 131 122 125 131 133 129 127 128 120 113 110 108 102 94 90 88 82 74 72 81 86 83 76 72 64 57 61 68 68 66 66 65 67 70 71 74 75 74 72 77 87 95 99 101 107 160 235 235 228 236 233 221 238 269 254 219
25 324 335 8 11 337 316 304 345 322 325 336 331 348 7 4 360 355 358 58 97 115 125 126 117 110 122 138 143 138 119 115 118 121 125 122 114 107 103 104 107 110 109 104 97 91 88 89 83 81 85 83 79 82 79 66 61 64 63 65 70 70 72 75 72 68 70 72 76 79 82 84 82 73 69 86 121 208 221 228 228 230 246 257 242 225
3 340 333 14 61 318 310 337 334 294 306 325 335 356 355 340 1 347 355 69 106 118 116 118 122 127 152 150 138 124 115 110 104 101 103 104 103 103 102 99 95 96 97 95 91 85 80 78 78 78 76 70 66 75 82 81 79 75 68 68 76 79 77 76 73 68 66 68 71 73 73 73 69 57 55 72 83 170 238 236 238 244 255 258 245 235
1 15 347 9 42 301 305 320 310 302 2 340 337 12 4 356 9 326 355 64 113 131 130 140 154 147 147 140 128 121 114 106 99 94 92 95 99 105 110 107 103 99 91 83 78 75 68 58 58 69 70 61 54 54 65 82 90 85 76 73 81 84 81 78 77 72 67 65 66 66 64 63 62 50 40 44 58 39 327 285 256 251 266 272 258 251
1 21 356 357 7 301 312 333 335 353 97 175 336 19 12 359 356 347 52 73 101 116 105 116 131 124 123 125 123 119 109 103 100 92 88 89 86 92 105 107 107 108 102 97 91 83 79 63 54 66 70 60 50 43 43 63 82 81 71 70 87 91 82 76 76 75 71 67 65 65 63 64 62 49 37 34 43 31 338 319 287 248 257 269 265 263
2 20 345 338 353 302 326 359 5 334 209 46 21 23 14 4 13 60 78 79 96 106 102 110 123 123 120 117 110 107 104 107 109 102 96 93 85 83 90 95 103 108 105 105 102 93 89 75 63 81 83 70 56 49 42 46 67 76 68 65 84 95 86 76 74 72 68 65 62 60 59 60 59 46 34 30 26 7 328 317 312 287 277 278 279 282
15 20 329 320 310 298 330 359 133 231 283 359 29 23 14 12 15 45 70 79 96 109 111 113 113 106 109 115 112 110 111 111 111 113 111 110 109 101 88 86 102 109 108 105 93 81 76 60 58 91 94 78 62 61 56 47 53 67 66 66 82 93 87 79 76 70 63 60 58 55 52 55 58 46 28 17 7 349 330 336 358 2 337 319 312 305
39 19 359 359 294 277 290 282 270 91 330 351 30 46 46 33 356 17 80 87 94 105 111 111 103 89 94 114 119 122 123 118 114 119 116 115 117 111 103 101 100 104 111 111 98 84 75 57 60 85 90 71 50 55 69 65 60 62 55 52 72 90 86 76 72 64 52 47 44 39 36 40 49 52 38 356 329 323 330 351 9 9 357 347 336 324
41 32 54 70 295 337 3 304 335 45 324 325 20 59 69 46 360 21 79 75 89 115 123 121 121 128 132 129 130 133 132 124 121 125 118 117 120 120 122 121 105 95 94 96 93 87 74 59 63 76 78 61 42 47 65 69 68 67 51 34 48 75 80 71 68 62 49 38 31 22 13 7 9 14 5 328 309 306 318 333 338 339 348 349 335 325
346 25 68 51 309 333 351 295 297 125 261 284 343 28 51 37 1 27 62 17 163 137 133 123 122 132 135 134 142 147 140 135 143 144 133 126 121 118 119 115 101 93 85 80 83 83 73 63 64 69 67 52 44 51 61 65 67 67 54 32 35 54 61 56 54 55 45 31 22 15 5 352 344 341 340 334 327 324 328 332 332 332 338 340 333 331
266 244 125 165 274 268 276 287 311 83 258 270 353 33 33 11 2 48 85 260 250 161 141 139 141 141 133 127 121 100 113 140 146 132 118 109 102 99 98 92 90 91 87 77 73 73 70 63 57 56 52 46 47 52 54 60 66 61 48 38 38 41 43 42 37 35 30 15 5 360 352 345 341 337 333 329 326 327 328 329 330 332 334 331 325 323
272 244 186 207 247 250 232 240 260 264 242 257 43 34 14 0 16 103 166 250 287 6 82 123 136 136 130 125 115 73 100 125 113 102 98 96 93 94 93 87 83 84 85 79 71 67 66 60 51 47 43 42 46 47 45 51 59 53 41 43 44 36 32 30 22 11 2 349 345 342 336 336 338 334 329 325 321 319 320 322 323 323 321 319 316 314
301 300 214 207 240 251 227 224 279 336 235 100 61 31 19 37 97 177 222 283 359 43 45 59 96 112 114 116 124 130 113 94 91 92 95 97 95 92 88 83 80 78 78 77 72 65 62 57 48 40 39 41 43 40 37 41 44 41 41 45 41 28 18 14 5 354 343 333 331 329 326 326 326 323 320 317 315 313 313 316 318 316 312 309 309 309
318 345 307 259 246 237 235 246 316 298 303 94 80 28 22 88 191 218 297 12 40 58 53 44 69 106 113 111 112 111 99 87 87 93 100 105 105 97 90 87 84 77 73 74 71 64 60 56 46 39 40 42 41 36 33 36 38 38 40 38 29 14 5 0 354 346 340 336 331 325 321 317 313 313 314 314 316 315 312 312 312 312 310 306 304 302
83 90 297 312 347 17 250 270 246 254 315 63 85 95 107 154 200 187 74 48 41 54 62 49 49 90 115 116 113 112 109 105 103 103 103 103 102 100 97 94 88 81 77 75 71 63 57 52 45 44 45 42 39 36 34 33 33 33 32 24 9 359 358 355 350 344 339 336 330 325 321 315 313 315 316 315 315 314 312 312 310 306 303 301 298 294
317 72 162 206 313 276 191 188 218 250 349 69 82 94 103 101 76 84 91 78 54 52 69 70 57 66 94 109 112 112 113 114 114 111 105 100 99 101 101 97 91 86 82 78 73 64 55 51 46 45 46 42 37 34 32 30 27 25 23 11 354 350 352 348 345 342 338 334 331 327 322 317 316 319 320 319 316 311 308 308 307 304 302 298 294 288
3 21 108 197 324 338 166 152 171 202 148 104 100 82 73 62 54 74 89 89 77 65 66 86 86 76 79 95 106 108 107 106 105 101 96 96 99 102 101 96 91 88 80 72 68 64 55 50 45 42 40 37 33 27 23 21 18 13 7 357 346 346 349 348 346 345 342 338 333 329 324 319 316 318 320 320 316 310 305 303 300 299 299 296 292 286
29 19 20 4 7 12 7 29 159 197 149 115 103 85 77 62 39 51 82 101 98 81 72 85 93 86 78 82 95 105 105 97 92 91 92 95 100 104 103 101 96 92 84 74 68 66 57 48 43 38 31 24 20 16 11 8 6 1 355 350 350 352 352 351 351 349 345 341 334 329 328 326 323 321 321 319 317 315 313 308 304 304 306 308 311 309
17 7 2 10 10 327 265 333 347 332 316 122 121 121 110 87 46 35 57 92 100 88 77 83 90 88 82 81 87 102 109 105 102 108 113 115 114 107 102 100 100 96 89 85 80 71 61 53 45 32 17 7 5 5 4 3 2 358 353 353 356 355 352 352 353 350 346 342 337 334 333 333 333 331 330 329 326 323 322 319 319 318 315 314 317 320
70 358 3 112 357 292 271 341 2 342 321 84 97 102 132 133 107 57 36 64 102 105 94 89 93 99 105 103 98 100 112 119 126 131 129 117 109 106 102 105 111 110 104 105 96 78 61 44 28 12 360 1 5 2 359 359 357 355 353 354 355 353 351 350 349 346 342 339 336 334 333 333 332 330 329 328 325 321 317 315 315 316 313 309 307 308
179 230 147 135 233 283 273 35 42 24 277 313 356 350 329 161 135 116 74 326 134 130 129 122 121 123 124 127 126 116 106 117 123 120 114 108 110 119 129 135 133 127 112 89 74 62 42 8 351 357 6 12 11 3 357 355 353 352 351 349 348 347 346 344 341 339 339 338 335 332 331 330 328 325 323 321 320 318 315 310 308 308 308 307 305 302
221 215 133 154 246 252 204 166 134 154 230 283 334 348 336 322 156 151 177 204 180 152 146 145 147 144 133 134 138 134 123 125 131 127 125 137 153 164 165 156 152 141 103 72 44 18 357 351 12 32 29 21 13 4 358 353 347 346 346 343 341 340 338 337 338 338 336 335 332 329 327 325 324 324 322 318 316 315 314 311 308 304 302 301 303 302